Location: St. Louis
(38.6270°N, 90.1994°W)
Time: 07:06:00
(UTC-05:00)

ISS - Pass Details

Date: 28 January 2014
Orbit: 402 x 406 km, 51.6° (Epoch: 28 August)

Event Time Altitude Azimuth Distance (km) Brightness Sun altitude
Exits shadow 04:30:53 11° 120° (ESE) 1,452 0.1 -31.1°
Drops below altitude 10° 04:31:06 10° 120° (ESE) 1,540 0.3 -31.1°
Sets 04:33:15 0° 123° (ESE) 2,412 1.4 -30.6°
